Weather History for Saipan, MP

Change the Weather History Date:

Friday, December 21, 2012

  Actual Average Record
Temperature  
Mean Temperature 78 °F -  
Max Temperature 82 °F 83 °F 88 °F (2014)
Min Temperature 73 °F 76 °F 73 °F (2012)
Cooling Degree Days 12    
Growing Degree Days 28 (Base 50)    
Moisture  
Dew Point 72 °F    
Average Humidity 80    
Maximum Humidity 97    
Minimum Humidity 69    
Precipitation  
Precipitation 0.31 in - - ()
Sea Level Pressure  
Sea Level Pressure 29.92 in    
Wind  
Wind Speed 19 mph (NE)    
Max Wind Speed 24 mph    
Max Gust Speed 37 mph    
Visibility 10 miles    
Events Rain    
Averages and records for this station are not official NWS values.
T = Trace of Precipitation, MM = Missing Value Source: NWS Daily Summary

Daily Weather History Graph

Daily Weather History Graph

Search for Another Location

Airport:

Trip Planner

Search our weather history database for the weather conditions in past years. The results will help you decide how hot, cold, wet, or windy it might be!

Date:

Astronomy

Dec. 21, 2012 Rise Set
Actual Time 6:38 AM ChST 5:52 PM ChST
Civil Twilight 6:14 AM ChST 6:15 PM ChST
Nautical Twilight 5:48 AM ChST 6:42 PM ChST
Astronomical Twilight 5:21 AM ChST 7:08 PM ChST
Moon 12:40 PM ChST (12/21) 12:31 AM ChST (12/21)
Length of Visible Light 12h 00m
Length of Day
11h 13m
First Quarter, 58% of the Moon is Illuminated
Dec 21
First Quarter
Dec 28
Full
Jan 5
Last Quarter
Jan 12
New
Jan 19
First Quarter

Hourly Weather History & Observations

Time (ChST) Temp. Heat Index Dew Point Humidity Pressure Visibility Wind Dir Wind Speed Gust Speed Precip Events Conditions
12:03 AM 75.2 °F - 73.4 °F 94% 29.90 in 10.0 mi NNE 13.8 mph 24.2 mph N/A   Mostly Cloudy
12:54 AM 73.9 °F - 73.0 °F 97% 29.97 in 4.0 mi East 19.6 mph 29.9 mph 0.03 in Rain Rain
1:54 AM 75.0 °F - 73.0 °F 94% 29.96 in 10.0 mi NE 19.6 mph 25.3 mph 0.18 in   Overcast
2:54 AM 75.0 °F - 73.0 °F 94% 29.94 in 4.0 mi ENE 21.9 mph 36.8 mph 0.07 in Rain Rain
3:54 AM 75.0 °F - 72.0 °F 90% 29.94 in 10.0 mi NE 19.6 mph 24.2 mph 0.03 in   Mostly Cloudy
4:54 AM 75.9 °F - 72.0 °F 87% 29.94 in 10.0 mi NE 17.3 mph 25.3 mph N/A   Mostly Cloudy
5:54 AM 75.9 °F - 71.1 °F 85% 29.95 in 10.0 mi NE 19.6 mph 31.1 mph N/A   Mostly Cloudy
6:54 AM 75.9 °F - 72.0 °F 87% 29.96 in 10.0 mi NE 18.4 mph 25.3 mph N/A   Mostly Cloudy
7:54 AM 77.0 °F - 71.1 °F 82% 29.98 in 10.0 mi NE 18.4 mph 28.8 mph N/A   Scattered Clouds
8:54 AM 79.0 °F - 72.0 °F 79% 29.98 in 10.0 mi NE 19.6 mph 32.2 mph N/A   Scattered Clouds
9:54 AM 80.1 °F 83.6 °F 71.1 °F 74% 29.97 in 10.0 mi NE 23.0 mph 32.2 mph N/A   Scattered Clouds
10:50 AM 78.8 °F - 71.6 °F 78% 29.89 in 10.0 mi NE 21.9 mph 34.5 mph N/A   Mostly Cloudy
10:54 AM 79.0 °F - 72.0 °F 79% 29.95 in 10.0 mi NE 21.9 mph 34.5 mph N/A   Mostly Cloudy
11:19 AM 80.6 °F 84.6 °F 71.6 °F 74% 29.88 in 10.0 mi NE 20.7 mph 29.9 mph N/A   Mostly Cloudy
11:54 AM 80.1 °F 83.8 °F 72.0 °F 76% 29.93 in 10.0 mi NE 21.9 mph 35.7 mph N/A   Mostly Cloudy
12:54 PM 81.0 °F 84.9 °F 71.1 °F 72% 29.90 in 10.0 mi NNE 17.3 mph 31.1 mph N/A   Mostly Cloudy
1:54 PM 82.0 °F 86.3 °F 71.1 °F 69% 29.87 in 10.0 mi NE 24.2 mph 35.7 mph N/A   Scattered Clouds
2:54 PM 82.0 °F 86.3 °F 71.1 °F 69% 29.86 in 10.0 mi NNE 24.2 mph 32.2 mph N/A   Mostly Cloudy
3:54 PM 80.1 °F 83.6 °F 71.1 °F 74% 29.87 in 10.0 mi NE 23.0 mph 33.4 mph N/A   Mostly Cloudy
4:54 PM 80.1 °F 83.8 °F 72.0 °F 76% 29.88 in 10.0 mi NE 16.1 mph 27.6 mph N/A   Mostly Cloudy
5:01 PM 80.6 °F 84.6 °F 71.6 °F 74% 29.81 in 10.0 mi NE 20.7 mph 28.8 mph N/A   Mostly Cloudy
5:54 PM 79.0 °F - 71.1 °F 77% 29.88 in 10.0 mi NE 19.6 mph 25.3 mph N/A   Mostly Cloudy
6:54 PM 79.0 °F - 71.1 °F 77% 29.90 in 10.0 mi NE 23.0 mph 27.6 mph N/A   Scattered Clouds
7:54 PM 79.0 °F - 71.1 °F 77% 29.91 in 10.0 mi NE 17.3 mph 25.3 mph N/A   Scattered Clouds
8:54 PM 79.0 °F - 70.0 °F 74% 29.93 in 10.0 mi NE 18.4 mph 25.3 mph N/A   Scattered Clouds
9:54 PM 79.0 °F - 70.0 °F 74% 29.94 in 10.0 mi NE 19.6 mph 27.6 mph N/A   Scattered Clouds
10:54 PM 79.0 °F - 71.1 °F 77% 29.93 in 10.0 mi NE 13.8 mph - N/A   Scattered Clouds
11:54 PM 78.1 °F - 72.0 °F 81% 29.91 in 10.0 mi NE 18.4 mph 25.3 mph 0.00 in   Mostly Cloudy